星链-38059(STARLINK-38059)

导读

### STARLINK-38059(NORAD 69714)卫星摘要 STARLINK-38059是SpaceX星链互联网星座的组网卫星,NORAD编号69714,国际编号2025-158M,由SpaceX制造,设计寿命约5年。该卫星运行于距地球约550千米的近地轨道,轨道周期约95分钟,属于星链v2 mini系列卫星。 作为星链星座的组成部分,该卫星与地面站及其他星链卫星组网通信,可为全球(含通信基础设施薄弱区域)提供最高超1Gbps速率的低延迟高速互联网服务。截至2026年7月,卫星正常在轨运行,助力SpaceX超大规模星座建设(规划总规模达4.2万颗),同时其反射信号也会对光学、射电天文观测造成一定干扰。

Basic Information
目录编号:
69714
目录名称:
STARLINK-38059
国际标识:
2026-147L
轨道中心:
EARTH
卫星名称:
星链-38059
卫星全名:
星链-38059(STARLINK-38059)
卫星状态:
在轨 (已飞行68 天)
发射日期:
2026-06-28 UTC
国别 :
美国 (US)
星等 :
--
Orbit Information
数据来源 国际轨道数据
星历时间: 2026-09-03T16:11:58+0800
19小时前
查看轨道信息
半长轴: 6843.683km
偏心率: 0.0000987
轨道倾角: 97.284°
近地点辐角 93.161°
升交点赤经 282.937°
平近点角 266.975°
近地点: 464.87km
远地点: 466.222km
周期: 93.906分钟
每日圈数: 15.334441
Detailed Information
固有亮度:
5
最大亮度:
2.5
卫星平台:
Starlink V1.0
覆盖范围:
全球
运营商:
太空探索技术公司
运营商所在国:
美国
制造商(研发单位):
太空探索技术公司
制造商所在国:
美国
使用方式:
暂无
Satellite Introduction
Starlink 计划是 SpaceX 推出的全球卫星互联网项目,通过发射低轨道卫星,为全球尤其是偏远地区提供高速、低延迟的互联网服务。自 2019 年起,Starlink 已部署数千颗卫星,旨在缩小全球数字鸿沟,推动互联网普及。该项目还为军事、航空等行业提供通信支持,带来广泛经济效益。
2D Orbit Map
3D Orbit Map
Orbit Altitude Analysis Chart
Orbit Inclination Analysis Chart
Orbit Comprehensive Analysis Chart
View Comprehensive Chart
Conjunction Data List
Event ID Objects TCA Miss Dist (km) Collision Risk Probability Collision Risk Index (CRI) Action
CDM_260905-143006-780206-971421
2026-09-05T
14:30:33+0000
1.026 km
极远距离
2.464285E-5 中风险 0.63
CDM_260905-125606-780206-971421
2026-09-05T
12:56:34+0000
1.818 km
极远距离
3.672765E-6 低风险 0.46
CDM_260904-151606-932106-971421
OBJECT B (69321)
2026-09-04T
15:16:45+0000
2.151 km
极远距离
2.137298E-6 低风险 0.42
CDM_260905-120606-624806-971421
2026-09-05T
12:06:25+0000
2.250 km
极远距离
1.997383E-6 低风险 0.41
CDM_260905-092606-223506-971421
2026-09-05T
09:26:04+0000
2.650 km
极远距离
1.581766E-6 低风险 0.39
CDM_260905-112206-780206-971421
2026-09-05T
11:22:36+0000
2.819 km
极远距离
1.439212E-6 低风险 0.38